This demonstration page uses our WeatherBlox Daily Observations layout. Learn more.

Left ArrowRight Arrow

31.31129, -92.44514

Hourly Observations for December 8, 2020

Temp ( °F °C ) Dew Point ( °F °C ) Humidity (%) Winds ( mph kmh ) Pressure ( in mb ) Visibility ( mi km ) Precip ( " mm )
1:53 am 01:53 Clear 37 2.8 36 2.2 96 96 Calm 30.19 1023 6 10 0.00 0.00
2:53 am 02:53 Clear 36 2.2 35 1.7 97 97 Calm 30.19 1022 6 10 0.00 0.00
3:53 am 03:53 Clear 37 2.8 35 1.7 93 93 Calm 30.19 1022 9 14 0.00 0.00
4:53 am 04:53 Clear 35 1.7 35 1.7 100 100 Calm 30.19 1023 8 13 0.00 0.00
5:53 am 05:53 Clear 35 1.7 34 1.1 96 96 Calm 30.21 1023 8 13 0.00 0.00
6:53 am 06:53 Clear 34 1.1 33 0.6 97 97 Calm 30.24 1024 8 13 0.00 0.00
7:53 am 07:53 Sunny 36 2.2 36 2.2 100 100 Calm 30.24 1024 8 13 0.00 0.00
8:53 am 08:53 Sunny 44 6.7 41 5 89 89 Calm 30.24 1024 9 14 0.00 0.00
9:53 am 09:53 Sunny 51 10.6 43 6.1 74 74 Calm 30.24 1024 10 16 0.00 0.00
10:53 am 10:53 Sunny 59 15 43 6.1 56 56 WNW 6 9 30.22 1023 10 16 0.00 0.00
11:53 am 11:53 Sunny 63 17.2 42 5.6 47 47 WSW 12 19 30.19 1022 10 16 0.00 0.00
12:53 pm 12:53 Sunny 65 18.3 42 5.6 43 43 WSW 8 13 30.15 1021 10 16 0.00 0.00
1:53 pm 13:53 Sunny 67 19.4 41 5 39 39 W 12 19 30.13 1020 10 16 0.00 0.00
2:53 pm 14:53 Sunny 68 20 41 5 38 38 W 12 19 30.12 1020 10 16 0.00 0.00
3:53 pm 15:53 Sunny 66 18.9 42 5.6 42 42 W 10 17 30.12 1020 10 16 0.00 0.00
4:53 pm 16:53 Sunny 61 16.1 45 7.2 56 56 WSW 7 11 30.13 1020 10 16 0.00 0.00
5:53 pm 17:53 Clear 55 12.8 43 6.1 64 64 WSW 5 7 30.14 1021 10 16 0.00 0.00
6:53 pm 18:53 Clear 54 12.2 41 5 62 62 SSW 3 6 30.15 1021 10 16 0.00 0.00
7:53 pm 19:53 Clear 54 12.2 42 5.6 64 64 SW 3 6 30.17 1022 10 16 0.00 0.00
8:53 pm 20:53 Clear 48 8.9 42 5.6 80 80 Calm 30.18 1022 10 16 0.00 0.00
9:53 pm 21:53 Clear 45 7.2 41 5 86 86 Calm 30.18 1022 10 16 0.00 0.00
10:53 pm 22:53 Clear 44 6.7 41 5 89 89 Calm 30.19 1023 10 16 0.00 0.00
11:53 pm 23:53 Clear 42 5.6 40 4.4 92 92 Calm 30.18 1022 10 16 0.00 0.00

Powered by AerisWeather